Tracking 31027 objects as of 19-Jul-2025
HD Live streaming from Space Station
objects crossing your sky now

STARLINK-3266

Track STARLINK-3266 now!
10-day predictions
STARLINK-3266 is classified as:


NORAD ID: 50195
Int'l Code: 2021-125AR
Perigee: 546.0 km
Apogee: 547.8 km
Inclination: 53.2 °
Period: 95.4 minutes
Semi major axis: 6917 km
RCS: Unknown
Launch date: December 18, 2021
Source: United States (US)
Launch site: AIR FORCE WESTERN TEST RANGE (AFWTR)
Your satellite tracking list
ATLAS 2A CENTAUR R/B
Track 1 satellite(s)




NASA's NSSDC Master Catalog

Two Line Element Set (TLE):
1 50195U 21125AR  25199.74739931 -.00002121  00000-0 -11523-3 0  9993
2 50195  53.2158 209.3294 0001319  72.2387 287.8749 15.08830402201412
Source of the keplerian elements: AFSPC